| time (UTC) | temp F | wind direction | speed MPH | gust MPH | rain 1hr in | rain 24hr in | rain mn in | humidity % | barometer mb |
| 20260831171907 | 86 | 86 | 4.0 | 8.0 | 0.00 | 0.00 | 0.00 | 38 | 1017.2 |
| 20260831171806 | 86 | 99 | 5.0 | 7.0 | 0.00 | 0.00 | 0.00 | 38 | 1017.3 |
| 20260831170822 | 86 | 59 | 5.0 | 8.0 | 0.00 | 0.00 | 0.00 | 36 | 1017.3 |
| 20260831170706 | 87 | 66 | 5.0 | 8.0 | 0.00 | 0.00 | 0.00 | 37 | 1017.3 |
| 20260831164707 | 85 | 95 | 5.0 | 10.0 | 0.00 | 0.00 | 0.00 | 38 | 1017.4 |
| 20260831163706 | 84 | 87 | 5.0 | 8.0 | 0.00 | 0.00 | 0.00 | 39 | 1017.6 |
| 20260831162705 | 84 | 83 | 7.0 | 12.0 | 0.00 | 0.00 | 0.00 | 38 | 1017.7 |
| 20260831161707 | 85 | 72 | 7.0 | 12.0 | 0.00 | 0.00 | 0.00 | 38 | 1017.6 |
| 20260831160704 | 84 | 81 | 5.0 | 9.0 | 0.00 | 0.00 | 0.00 | 38 | 1017.5 |
| 20260831160605 | 84 | 71 | 4.0 | 8.0 | 0.00 | 0.00 | 0.00 | 39 | 1017.4 |
| 20260831155622 | 84 | 113 | 3.0 | 5.0 | 0.00 | 0.00 | 0.00 | 39 | 1017.5 |
| 20260831154606 | 83 | 97 | 2.0 | 4.0 | 0.00 | 0.00 | 0.00 | 35 | 1017.5 |
| 20260831153621 | 81 | 225 | 0.0 | 0.0 | 0.00 | 0.00 | 0.00 | 35 | 1017.6 |
| 20260831152622 | 80 | 247 | 0.0 | 0.0 | 0.00 | 0.00 | 0.00 | 36 | 1017.6 |
| 20260831151703 | 79 | 246 | 2.0 | 3.0 | 0.00 | 0.00 | 0.00 | 36 | 1017.6 |
| 20260831150706 | 77 | 292 | 1.0 | 4.0 | 0.00 | 0.00 | 0.00 | 36 | 1017.5 |
| 20260831145706 | 77 | 292 | 1.0 | 3.0 | 0.00 | 0.00 | 0.00 | 37 | 1017.6 |
| 20260831144805 | 76 | 315 | 1.0 | 2.0 | 0.00 | 0.00 | 0.00 | 38 | 1017.7 |
| 20260831142806 | 74 | 292 | 0.0 | 0.0 | 0.00 | 0.00 | 0.00 | 41 | 1017.5 |
| 20260831141821 | 73 | 303 | 0.0 | 1.0 | 0.00 | 0.00 | 0.00 | 43 | 1017.5 |
| 20260831140821 | 72 | 292 | 0.0 | 0.0 | 0.00 | 0.00 | 0.00 | 44 | 1017.4 |
| 20260831135907 | 71 | 292 | 0.0 | 0.0 | 0.00 | 0.00 | 0.00 | 45 | 1017.2 |
| 20260831135003 | 70 | 292 | 0.0 | 0.0 | 0.00 | 0.00 | 0.00 | 44 | 1017.2 |
| 20260831134019 | 69 | 302 | 3.0 | 3.0 | 0.00 | 0.00 | 0.00 | 48 | 1016.9 |
| 20260831133021 | 69 | 315 | 0.0 | 0.0 | 0.00 | 0.00 | 0.00 | 45 | 1016.8 |
| 20260831132107 | 69 | 315 | 0.0 | 0.0 | 0.00 | 0.00 | 0.00 | 46 | 1016.7 |
| 20260831125220 | 69 | 22 | 0.0 | 1.0 | 0.00 | 0.00 | 0.00 | 47 | 1016.4 |
| 20260831124303 | 69 | 337 | 0.0 | 0.0 | 0.00 | 0.00 | 0.00 | 46 | 1016.3 |
| 20260831123304 | 69 | 337 | 1.0 | 2.0 | 0.00 | 0.00 | 0.00 | 47 | 1016.3 |
| 20260831122204 | 70 | 337 | 0.0 | 1.0 | 0.00 | 0.00 | 0.00 | 45 | 1016.0 |
| 20260831121219 | 71 | 337 | 0.0 | 0.0 | 0.00 | 0.00 | 0.00 | 41 | 1016.2 |
| 20260831120304 | 71 | 22 | 0.0 | 0.0 | 0.00 | 0.00 | 0.00 | 40 | 1016.0 |
| 20260831115319 | 71 | 112 | 1.0 | 2.0 | 0.00 | 0.00 | 0.00 | 40 | 1016.0 |
| 20260831114406 | 70 | 236 | 3.0 | 5.0 | 0.00 | 0.00 | 0.00 | 42 | 1015.9 |
| 20260831113405 | 70 | 315 | 0.0 | 0.0 | 0.00 | 0.00 | 0.00 | 45 | 1015.9 |
| 20260831112426 | 70 | 315 | 0.0 | 0.0 | 0.00 | 0.00 | 0.00 | 46 | 1015.9 |
| 20260831111520 | 71 | 331 | 0.0 | 2.0 | 0.00 | 0.00 | 0.00 | 43 | 1016.0 |
| 20260831110604 | 71 | 45 | 1.0 | 2.0 | 0.00 | 0.00 | 0.00 | 42 | 1015.9 |
| 20260831105622 | 70 | 67 | 1.0 | 4.0 | 0.00 | 0.00 | 0.00 | 41 | 1016.2 |
| 20260831104703 | 70 | 247 | 1.0 | 2.0 | 0.00 | 0.00 | 0.00 | 42 | 1016.0 |
| 20260831103705 | 70 | 247 | 2.0 | 3.0 | 0.00 | 0.00 | 0.00 | 47 | 1016.0 |
| 20260831102705 | 70 | 339 | 0.0 | 1.0 | 0.00 | 0.00 | 0.00 | 48 | 1015.9 |
| 20260831101720 | 70 | 315 | 0.0 | 2.0 | 0.00 | 0.00 | 0.00 | 47 | 1016.0 |
| 20260831100803 | 70 | 22 | 1.0 | 1.0 | 0.00 | 0.00 | 0.00 | 46 | 1016.0 |
| 20260831095808 | 70 | 337 | 0.0 | 1.0 | 0.00 | 0.00 | 0.00 | 44 | 1016.0 |
| 20260831094904 | 70 | 337 | 0.0 | 0.0 | 0.00 | 0.00 | 0.00 | 47 | 1015.8 |
| 20260831093919 | 71 | 337 | 0.0 | 0.0 | 0.00 | 0.00 | 0.00 | 48 | 1015.7 |
| 20260831092005 | 72 | 337 | 0.0 | 0.0 | 0.00 | 0.00 | 0.00 | 43 | 1015.5 |
| 20260831091007 | 72 | 337 | 2.0 | 2.0 | 0.00 | 0.00 | 0.00 | 40 | 1015.4 |
| 20260831090006 | 71 | 360 | 2.0 | 3.0 | 0.00 | 0.00 | 0.00 | 47 | 1015.3 |
| 20260831085006 | 72 | 292 | 1.0 | 2.0 | 0.00 | 0.00 | 0.00 | 46 | 1015.2 |
| 20260831084020 | 73 | 292 | 0.0 | 0.0 | 0.00 | 0.00 | 0.00 | 44 | 1015.2 |
| 20260831083019 | 73 | 292 | 0.0 | 0.0 | 0.00 | 0.00 | 0.00 | 45 | 1015.2 |
| 20260831082105 | 73 | 315 | 1.0 | 1.0 | 0.00 | 0.00 | 0.00 | 42 | 1015.2 |
| 20260831081107 | 73 | 315 | 0.0 | 0.0 | 0.00 | 0.00 | 0.00 | 43 | 1015.1 |
| 20260831080105 | 73 | 315 | 0.0 | 0.0 | 0.00 | 0.00 | 0.00 | 42 | 1014.9 |
| 20260831075105 | 74 | 315 | 0.0 | 0.0 | 0.00 | 0.00 | 0.00 | 41 | 1014.9 |
| 20260831075022 | 74 | 315 | 0.0 | 0.0 | 0.00 | 0.00 | 0.00 | 41 | 1014.9 |
| 20260831074103 | 75 | 352 | 0.0 | 2.0 | 0.00 | 0.00 | 0.00 | 38 | 1014.8 |
| 20260831073120 | 75 | 360 | 2.0 | 2.0 | 0.00 | 0.00 | 0.00 | 39 | 1014.9 |
| 20260831072204 | 76 | 67 | 0.0 | 0.0 | 0.00 | 0.00 | 0.00 | 38 | 1015.1 |
| 20260831071220 | 75 | 337 | 0.0 | 0.0 | 0.00 | 0.00 | 0.00 | 38 | 1014.9 |
| 20260831070303 | 76 | 337 | 0.0 | 0.0 | 0.00 | 0.00 | 0.00 | 37 | 1014.8 |
| 20260831065319 | 76 | 337 | 0.0 | 0.0 | 0.00 | 0.00 | 0.00 | 37 | 1014.7 |
| 20260831064305 | 77 | 337 | 0.0 | 0.0 | 0.00 | 0.00 | 0.00 | 36 | 1014.8 |
| 20260831063304 | 78 | 337 | 0.0 | 0.0 | 0.00 | 0.00 | 0.00 | 34 | 1014.7 |
| 20260831061306 | 78 | 314 | 4.0 | 6.0 | 0.00 | 0.00 | 0.00 | 36 | 1014.6 |
| 20260831060320 | 79 | 22 | 1.0 | 2.0 | 0.00 | 0.00 | 0.00 | 34 | 1014.7 |
| 20260831055319 | 79 | 90 | 1.0 | 1.0 | 0.00 | 0.00 | 0.00 | 35 | 1014.7 |
| 20260831053319 | 80 | 247 | 0.0 | 0.0 | 0.00 | 0.00 | 0.00 | 34 | 1014.7 |
| 20260831052417 | 80 | 247 | 0.0 | 0.0 | 0.00 | 0.00 | 0.00 | 32 | 1014.9 |
| 20260831050517 | 80 | 315 | 0.0 | 0.0 | 0.00 | 0.00 | 0.00 | 35 | 1014.6 |
| 20260831044618 | 80 | 337 | 0.0 | 0.0 | 0.00 | 0.00 | 0.00 | 36 | 1014.4 |
| 20260831043619 | 80 | 337 | 0.0 | 0.0 | 0.00 | 0.00 | 0.00 | 36 | 1014.5 |
| 20260831042619 | 81 | 337 | 0.0 | 0.0 | 0.00 | 0.00 | 0.00 | 35 | 1014.4 |
| 20260831041717 | 82 | 337 | 0.0 | 0.0 | 0.00 | 0.00 | 0.00 | 33 | 1014.4 |
| 20260831040733 | 82 | 337 | 0.0 | 0.0 | 0.00 | 0.00 | 0.00 | 33 | 1014.2 |
| 20260831035737 | 82 | 337 | 0.0 | 0.0 | 0.00 | 0.00 | 0.00 | 33 | 1014.0 |
| 20260831034818 | 82 | 337 | 0.0 | 0.0 | 0.00 | 0.00 | 0.00 | 34 | 1013.8 |
| 20260831033834 | 82 | 337 | 0.0 | 0.0 | 0.00 | 0.00 | 0.00 | 33 | 1013.6 |
| 20260831032921 | 83 | 337 | 0.0 | 1.0 | 0.00 | 0.00 | 0.00 | 33 | 1013.5 |
| 20260831032019 | 83 | 337 | 0.0 | 0.0 | 0.00 | 0.00 | 0.00 | 32 | 1013.4 |
| 20260831031114 | 85 | 337 | 0.0 | 0.0 | 0.00 | 0.00 | 0.00 | 30 | 1013.5 |
| 20260831030211 | 85 | 337 | 0.0 | 0.0 | 0.00 | 0.00 | 0.00 | 29 | 1013.3 |
| 20260831025228 | 86 | 337 | 0.0 | 1.0 | 0.00 | 0.00 | 0.00 | 29 | 1013.2 |
| 20260831024212 | 87 | 225 | 0.0 | 0.0 | 0.00 | 0.00 | 0.00 | 27 | 1013.1 |
| 20260831023228 | 88 | 225 | 0.0 | 0.0 | 0.00 | 0.00 | 0.00 | 26 | 1013.1 |
| 20260831022313 | 89 | 225 | 0.0 | 0.0 | 0.00 | 0.00 | 0.00 | 24 | 1013.1 |
| 20260831021327 | 89 | 225 | 0.0 | 0.0 | 0.00 | 0.00 | 0.00 | 25 | 1012.9 |
| 20260831020313 | 90 | 225 | 0.0 | 0.0 | 0.00 | 0.00 | 0.00 | 24 | 1013.0 |
| 20260831015311 | 91 | 225 | 0.0 | 0.0 | 0.00 | 0.00 | 0.00 | 22 | 1013.0 |
| 20260831014329 | 92 | 292 | 0.0 | 0.0 | 0.00 | 0.00 | 0.00 | 22 | 1012.9 |
| 20260831014213 | 92 | 292 | 0.0 | 1.0 | 0.00 | 0.00 | 0.00 | 22 | 1012.8 |
| 20260831013211 | 92 | 270 | 0.0 | 1.0 | 0.00 | 0.00 | 0.00 | 21 | 1012.8 |
| 20260831012228 | 93 | 231 | 5.0 | 7.0 | 0.00 | 0.00 | 0.00 | 21 | 1012.8 |
| 20260831011213 | 93 | 240 | 4.0 | 8.0 | 0.00 | 0.00 | 0.00 | 21 | 1012.9 |
| 20260831010310 | 94 | 285 | 5.0 | 7.0 | 0.00 | 0.00 | 0.00 | 20 | 1012.8 |
| 20260831005410 | 94 | 267 | 5.0 | 7.0 | 0.00 | 0.00 | 0.00 | 20 | 1012.9 |
| 20260831004427 | 94 | 223 | 6.0 | 9.0 | 0.00 | 0.00 | 0.00 | 21 | 1012.8 |
| 20260831003412 | 94 | 287 | 5.0 | 9.0 | 0.00 | 0.00 | 0.00 | 22 | 1013.0 |
| 20260831001429 | 95 | 247 | 6.0 | 10.0 | 0.00 | 0.00 | 0.00 | 21 | 1013.0 |
| 20260831000429 | 95 | 264 | 6.0 | 11.0 | 0.00 | 0.00 | 0.00 | 21 | 1013.1 |
| 20260830234428 | 94 | 243 | 4.0 | 6.0 | 0.00 | 0.00 | 0.00 | 21 | 1012.9 |
| 20260830232611 | 93 | 238 | 7.0 | 16.0 | 0.00 | 0.00 | 0.00 | 22 | 1012.9 |
| 20260830231613 | 93 | 236 | 9.0 | 13.0 | 0.00 | 0.00 | 0.00 | 22 | 1012.9 |
| 20260830230712 | 93 | 261 | 4.0 | 9.0 | 0.00 | 0.00 | 0.00 | 21 | 1013.1 |
| 20260830225726 | 93 | 256 | 7.0 | 11.0 | 0.00 | 0.00 | 0.00 | 22 | 1013.1 |
| 20260830222813 | 94 | 250 | 5.0 | 9.0 | 0.00 | 0.00 | 0.00 | 21 | 1013.5 |
| 20260830221828 | 94 | 250 | 6.0 | 11.0 | 0.00 | 0.00 | 0.00 | 22 | 1013.7 |
| 20260830220826 | 94 | 239 | 5.0 | 8.0 | 0.00 | 0.00 | 0.00 | 21 | 1013.7 |
| 20260830215811 | 94 | 234 | 9.0 | 13.0 | 0.00 | 0.00 | 0.00 | 21 | 1013.8 |
| 20260830214814 | 94 | 247 | 9.0 | 14.0 | 0.00 | 0.00 | 0.00 | 22 | 1014.0 |
| 20260830213829 | 94 | 215 | 10.0 | 15.0 | 0.00 | 0.00 | 0.00 | 22 | 1014.2 |
| 20260830212814 | 94 | 247 | 8.0 | 12.0 | 0.00 | 0.00 | 0.00 | 22 | 1014.0 |
| 20260830211911 | 95 | 209 | 11.0 | 16.0 | 0.00 | 0.00 | 0.00 | 22 | 1014.3 |
| 20260830210911 | 95 | 273 | 7.0 | 12.0 | 0.00 | 0.00 | 0.00 | 23 | 1014.2 |
| 20260830205912 | 95 | 248 | 9.0 | 14.0 | 0.00 | 0.00 | 0.00 | 21 | 1014.3 |
| 20260830204911 | 95 | 244 | 9.0 | 16.0 | 0.00 | 0.00 | 0.00 | 22 | 1014.5 |
| 20260830203911 | 95 | 238 | 6.0 | 9.0 | 0.00 | 0.00 | 0.00 | 22 | 1014.4 |
| 20260830202913 | 97 | 241 | 12.0 | 17.0 | 0.00 | 0.00 | 0.00 | 21 | 1014.5 |
| 20260830201012 | 98 | 201 | 9.0 | 13.0 | 0.00 | 0.00 | 0.00 | 21 | 1014.6 |
| 20260830200027 | 99 | 183 | 5.0 | 11.0 | 0.00 | 0.00 | 0.00 | 21 | 1014.7 |
| 20260830195013 | 97 | 209 | 4.0 | 7.0 | 0.00 | 0.00 | 0.00 | 22 | 1014.7 |
| 20260830193110 | 97 | 197 | 9.0 | 15.0 | 0.00 | 0.00 | 0.00 | 21 | 1014.9 |
| 20260830192128 | 98 | 193 | 9.0 | 14.0 | 0.00 | 0.00 | 0.00 | 20 | 1015.1 |
| 20260830191111 | 97 | 165 | 7.0 | 20.0 | 0.00 | 0.00 | 0.00 | 22 | 1014.9 |
| 20260830190127 | 97 | 176 | 4.0 | 7.0 | 0.00 | 0.00 | 0.00 | 22 | 1015.3 |
| 20260830185210 | 95 | 196 | 2.0 | 3.0 | 0.00 | 0.00 | 0.00 | 22 | 1015.3 |
| 20260830184212 | 96 | 221 | 9.0 | 15.0 | 0.00 | 0.00 | 0.00 | 23 | 1015.5 |
| 20260830183229 | 96 | 207 | 10.0 | 17.0 | 0.00 | 0.00 | 0.00 | 23 | 1015.5 |
| 20260830182312 | 95 | 210 | 7.0 | 10.0 | 0.00 | 0.00 | 0.00 | 23 | 1015.4 |
| 20260830181312 | 95 | 236 | 7.0 | 12.0 | 0.00 | 0.00 | 0.00 | 23 | 1015.5 |
| 20260830180326 | 95 | 209 | 3.0 | 5.0 | 0.00 | 0.00 | 0.00 | 23 | 1015.7 |
| 20260830175412 | 94 | 68 | 4.0 | 7.0 | 0.00 | 0.00 | 0.00 | 24 | 1015.8 |
| 20260830174510 | 95 | 38 | 5.0 | 7.0 | 0.00 | 0.00 | 0.00 | 24 | 1015.9 |
| 20260830172612 | 94 | 106 | 2.0 | 4.0 | 0.00 | 0.00 | 0.00 | 26 | 1015.9 |